Date String (YYYY-MM-DD hh:mm:ss) UTC,Instrument flags,Ambient pressure (hPa),Sample flow (lpm),Bypass flow (lpm),Sample temperature (°C),Ambient temperature (°C),ASC tube jacket temperature (°C),LED temperature (°C),Box temperature (°C),Sample RH (%),Span deviation,Mass concentration (μg/m³),Mass concentration (μg/m³),Mass concentration (μg/m³)
DateTimeUTC,F1_M11,P_M11,Q1_M11,Q2_M11,T1_M11,T2_M11,T3_M11,T4_M11,T5_M11,U1_M11,ZSPAN_M11,X0_M11,X2_M11,X1_M11
2022-11-26 11:00:00,,0821.5,4.98,0.00,23.0,21.6,00.0,32.0,24.8,12.8,0000.0,0004.00,0001.53,0001.18
2022-11-26 11:01:00,,0821.5,5.01,0.00,23.0,21.6,00.0,32.0,24.7,12.7,0000.0,0004.05,0001.56,0001.19
2022-11-26 11:02:00,,0821.5,5.00,0.00,23.0,21.6,00.0,32.0,24.8,12.7,0000.0,0004.10,0001.58,0001.18
2022-11-26 11:03:00,,0821.4,4.99,0.00,23.0,21.6,00.0,32.0,24.8,12.7,0000.0,0004.07,0001.57,0001.18
2022-11-26 11:04:00,,0821.4,4.99,0.00,23.0,21.6,00.0,32.0,24.8,12.7,0000.0,0003.97,0001.53,0001.17
2022-11-26 11:05:00,,0821.4,5.01,0.00,23.0,21.6,00.0,32.0,24.8,12.7,0000.0,0003.78,0001.53,0001.17
2022-11-26 11:06:00,,0821.4,5.00,0.00,23.0,21.6,00.0,32.0,24.9,12.7,0000.0,0002.14,0001.46,0001.17
2022-11-26 11:07:00,,0821.4,5.00,0.00,23.0,21.6,00.0,32.0,24.9,12.7,0000.0,0002.13,0001.46,0001.18
2022-11-26 11:08:00,,0821.4,5.00,0.00,23.0,21.6,00.0,32.0,24.8,12.7,0000.0,0002.24,0001.46,0001.18
2022-11-26 11:09:00,,0821.4,4.99,0.00,23.0,21.6,00.0,32.0,24.8,12.7,0000.0,0002.35,0001.50,0001.18
2022-11-26 11:10:00,,0821.4,5.00,0.00,23.0,21.6,00.0,32.0,24.9,12.7,0000.0,0002.36,0001.49,0001.18
2022-11-26 11:11:00,,0821.4,5.01,0.00,23.0,21.6,00.0,32.0,24.9,12.7,0000.0,0002.38,0001.49,0001.19
2022-11-26 11:12:00,,0821.4,4.99,0.00,23.0,21.6,00.0,32.0,24.8,12.7,0000.0,0002.33,0001.47,0001.20
2022-11-26 11:13:00,,0821.4,5.01,0.00,23.0,21.6,00.0,32.0,24.8,12.7,0000.0,0002.26,0001.45,0001.21
2022-11-26 11:14:00,,0821.4,5.01,0.00,23.0,21.6,00.0,32.0,24.8,12.7,0000.0,0002.29,0001.47,0001.23
2022-11-26 11:15:00,,0821.4,5.00,0.00,23.0,21.6,00.0,32.0,24.8,12.7,0000.0,0002.38,0001.52,0001.24
2022-11-26 11:16:00,,0821.4,4.99,0.00,23.0,21.6,00.0,32.0,24.8,12.7,0000.0,0002.44,0001.54,0001.24
2022-11-26 11:17:00,,0821.4,5.00,0.00,23.0,21.6,00.0,32.0,24.8,12.7,0000.0,0002.42,0001.52,0001.24
2022-11-26 11:18:00,,0821.4,5.00,0.00,23.0,21.6,00.0,32.0,24.8,12.7,0000.0,0002.41,0001.51,0001.24
2022-11-26 11:19:00,,0821.4,5.00,0.00,23.0,21.6,00.0,32.0,24.8,12.7,0000.0,0002.32,0001.52,0001.24
2022-11-26 11:20:00,,0821.4,4.99,0.00,23.0,21.6,00.0,32.0,24.8,12.7,0000.0,0002.27,0001.50,0001.24
2022-11-26 11:21:00,,0821.3,4.99,0.00,23.0,21.6,00.0,32.0,24.8,12.7,0000.0,0002.37,0001.51,0001.25
2022-11-26 11:22:00,,0821.4,5.01,0.00,23.0,21.6,00.0,32.0,24.8,12.7,0000.0,0002.44,0001.52,0001.25
2022-11-26 11:23:00,,0821.4,5.01,0.00,23.0,21.6,00.0,32.0,24.8,12.7,0000.0,0002.54,0001.51,0001.23
2022-11-26 11:24:00,,0821.4,5.00,0.00,23.0,21.6,00.0,32.0,24.8,12.7,0000.0,0002.58,0001.52,0001.22
2022-11-26 11:25:00,,0821.3,4.99,0.00,23.0,21.6,00.0,32.0,24.7,12.7,0000.0,0002.54,0001.50,0001.20
2022-11-26 11:26:00,,0821.3,5.00,0.00,23.0,21.6,00.0,32.0,24.7,12.7,0000.0,0002.45,0001.44,0001.17
2022-11-26 11:27:00,,0821.3,5.00,0.00,23.0,21.6,00.0,32.0,24.8,12.7,0000.0,0002.33,0001.39,0001.15
2022-11-26 11:28:00,,0821.3,5.00,0.00,23.0,21.6,00.0,32.0,24.7,12.7,0000.0,0002.21,0001.37,0001.14
2022-11-26 11:29:00,,0821.4,5.00,0.00,23.0,21.6,00.0,32.0,24.7,12.7,0000.0,0002.32,0001.40,0001.13
2022-11-26 11:30:00,,0821.4,5.00,0.00,23.0,21.5,00.0,32.0,24.7,12.7,0000.0,0003.87,0001.41,0001.12
2022-11-26 11:31:00,,0821.4,4.99,0.00,23.0,21.5,00.0,31.9,24.7,12.7,0000.0,0004.28,0001.43,0001.11
2022-11-26 11:32:00,,0821.3,5.00,0.00,22.9,21.5,00.0,31.9,24.6,12.8,0000.0,0004.17,0001.41,0001.08
2022-11-26 11:33:00,,0821.3,5.01,0.00,22.9,21.5,00.0,31.9,24.7,12.7,0000.0,0004.06,0001.37,0001.08
2022-11-26 11:34:00,,0821.3,5.01,0.00,22.9,21.5,00.0,31.9,24.7,12.7,0000.0,0003.98,0001.37,0001.08
2022-11-26 11:35:00,,0821.2,4.99,0.00,22.9,21.5,00.0,31.9,24.7,12.8,0000.0,0004.02,0001.36,0001.07
2022-11-26 11:36:00,,0821.2,4.99,0.00,22.9,21.5,00.0,31.9,24.7,12.8,0000.0,0004.29,0001.35,0001.06
2022-11-26 11:37:00,,0821.1,5.00,0.00,22.9,21.5,00.0,31.9,24.7,12.7,0000.0,0005.07,0001.35,0001.06
2022-11-26 11:38:00,,0821.1,5.00,0.00,22.9,21.5,00.0,31.9,24.7,12.7,0000.0,0005.17,0001.37,0001.07
2022-11-26 11:39:00,,0821.1,5.00,0.00,22.9,21.5,00.0,31.9,24.7,12.7,0000.0,0005.31,0001.40,0001.06
2022-11-26 11:40:00,,0821.2,5.00,0.00,22.9,21.5,00.0,31.9,24.6,12.6,0000.0,0005.22,0001.36,0001.05
2022-11-26 11:41:00,,0821.2,5.00,0.00,22.9,21.5,00.0,31.9,24.6,12.6,0000.0,0004.07,0001.33,0001.03
2022-11-26 11:42:00,,0821.1,5.01,0.00,22.9,21.5,00.0,31.9,24.6,12.5,0000.0,0003.27,0001.28,0001.02
2022-11-26 11:43:00,,0821.1,4.98,0.00,22.9,21.5,00.0,31.9,24.7,12.5,0000.0,0003.24,0001.26,0000.99
2022-11-26 11:44:00,,0821.1,5.02,0.00,22.9,21.5,00.0,31.9,24.7,12.5,0000.0,0003.31,0001.26,0000.97
2022-11-26 11:45:00,,0821.1,5.00,0.00,22.9,21.5,00.0,31.9,24.6,12.5,0000.0,0003.27,0001.23,0000.94
2022-11-26 11:46:00,,0821.1,5.01,0.00,22.9,21.5,00.0,31.9,24.6,12.5,0000.0,0003.41,0001.26,0000.91
2022-11-26 11:47:00,,0821.1,4.99,0.00,22.9,21.5,00.0,31.9,24.7,12.5,0000.0,0003.24,0001.28,0000.89
2022-11-26 11:48:00,,0821.1,5.01,0.00,22.9,21.5,00.0,31.9,24.6,12.6,0000.0,0002.58,0001.31,0000.88
2022-11-26 11:49:00,,0821.1,4.99,0.00,22.9,21.5,00.0,31.9,24.7,12.6,0000.0,0002.64,0001.32,0000.86
2022-11-26 11:50:00,,0821.1,5.02,0.00,22.9,21.5,00.0,31.9,24.7,12.6,0000.0,0002.50,0001.29,0000.85
2022-11-26 11:51:00,,0821.1,4.99,0.00,22.9,21.5,00.0,31.9,24.7,12.6,0000.0,0002.43,0001.28,0000.84
2022-11-26 11:52:00,,0821.1,4.99,0.00,22.9,21.5,00.0,31.9,24.7,12.6,0000.0,0002.49,0001.30,0000.84
2022-11-26 11:53:00,,0821.1,5.02,0.00,22.9,21.5,00.0,31.9,24.6,12.6,0000.0,0002.69,0001.37,0000.85
2022-11-26 11:54:00,,0821.1,4.99,0.00,22.9,21.5,00.0,31.9,24.6,12.6,0000.0,0002.67,0001.37,0000.86
2022-11-26 11:55:00,,0821.1,5.02,0.00,22.9,21.4,00.0,31.9,24.6,12.6,0000.0,0002.67,0001.38,0000.87
2022-11-26 11:56:00,,0821.0,4.99,0.00,22.9,21.4,00.0,31.8,24.6,12.5,0000.0,0002.69,0001.40,0000.88
2022-11-26 11:57:00,,0821.0,5.01,0.00,22.9,21.4,00.0,31.8,24.6,12.5,0000.0,0002.57,0001.38,0000.89
2022-11-26 11:58:00,,0821.0,4.99,0.00,22.9,21.4,00.0,31.8,24.5,12.4,0000.0,0002.38,0001.32,0000.88
2022-11-26 11:59:00,,0821.0,5.02,0.00,22.9,21.4,00.0,31.8,24.6,12.5,0000.0,0002.37,0001.30,0000.87
